Weather History for KWJF - January, 2013

Change the Weather History Date:

Sunday, January 13, 2013

  Actual Average Record
Temperature  
Mean Temperature 27 °F 45 °F  
Max Temperature 46 °F 59 °F 72 °F (1996)
Min Temperature 8 °F 31 °F 4 °F (1963)
Degree Days  
Heating Degree Days 38    
Month to date heating degree days 369  
Since 1 July heating degree days 1439  
Cooling Degree Days 0    
Month to date cooling degree days 0  
Year to date cooling degree days 0  
Moisture  
Dew Point 8 °F    
Average Humidity 47    
Maximum Humidity 73    
Minimum Humidity 21    
Precipitation  
Precipitation 0.00 in 0.05 in 1.60 in (1993)
Month to date precipitation T 0.64  
Year to date precipitation T 0.64  
Since 1 July precipitation 0.16 3.11  
Snow  
Snow 0.00 in - 16.00 in (1993)
Month to date snowfall 0.0  
Since 1 July snowfall 0.0  
Snow Depth 0.00 in    
Sea Level Pressure  
Sea Level Pressure 30.19 in    
Wind  
Wind Speed 4 mph (NNW)    
Max Wind Speed 20 mph    
Max Gust Speed -    
Visibility 10 miles    
Events      
T = Trace of Precipitation, MM = Missing Value Source: NWS Daily Summary

Daily Weather History Graph

Daily Weather History Graph

Search for Another Location

Airport or City:

Trip Planner

Search our weather history database for the weather conditions in past years. The results will help you decide how hot, cold, wet, or windy it might be!

Date:

Astronomy

Jan. 13, 2013 Rise Set
Actual Time 7:00 AM PST 5:03 PM PST
Civil Twilight 6:32 AM PST 5:31 PM PST
Nautical Twilight 6:01 AM PST 6:02 PM PST
Astronomical Twilight 5:31 AM PST 6:32 PM PST
Moon 8:08 AM PST (1/13) 7:39 PM PST (1/13)
Length of Visible Light 10h 58m
Length of Day
10h 03m
Waxing Crescent, 6% of the Moon is Illuminated
Jan 13
Waxing Crescent
Jan 18
First Quarter
Jan 26
Full
Feb 3
Last Quarter
Feb 9
New

Hourly Weather History & Observations

Time (PST) Temp. Windchill Dew Point Humidity Pressure Visibility Wind Dir Wind Speed Gust Speed Precip Events Conditions
12:56 AM 24.1 °F - 12.9 °F 62% 30.17 in 10.0 mi Calm Calm - N/A   Clear
1:56 AM 19.9 °F 14.9 °F 10.9 °F 68% 30.19 in 10.0 mi WNW 3.5 mph - N/A   Clear
2:56 AM 15.1 °F 6.4 °F 6.1 °F 68% 30.20 in 10.0 mi NW 5.8 mph - N/A   Clear
3:56 AM 17.1 °F - 8.1 °F 68% 30.19 in 10.0 mi Calm Calm - N/A   Clear
4:56 AM 16.0 °F 10.4 °F 7.0 °F 68% 30.21 in 10.0 mi SW 3.5 mph - N/A   Clear
5:56 AM 15.1 °F - 6.1 °F 68% 30.23 in 10.0 mi Calm Calm - N/A   Clear
6:56 AM 9.0 °F 2.4 °F 1.9 °F 73% 30.27 in 10.0 mi North 3.5 mph - N/A   Clear
7:56 AM 15.1 °F - 7.0 °F 70% 30.27 in 10.0 mi Calm Calm - N/A   Clear
8:56 AM 23.0 °F - 10.0 °F 58% 30.26 in 10.0 mi Calm Calm - N/A   Clear
9:56 AM 33.1 °F - 12.9 °F 43% 30.25 in 10.0 mi Calm Calm - N/A   Clear
10:56 AM 36.0 °F - 10.0 °F 34% 30.20 in 10.0 mi Calm Calm - N/A   Clear
11:56 AM 39.9 °F - 8.1 °F 27% 30.14 in 10.0 mi Calm Calm - N/A   Clear
12:56 PM 41.0 °F - 7.0 °F 25% 30.10 in 10.0 mi Calm Calm - N/A   Clear
1:56 PM 44.1 °F - 8.1 °F 23% 30.11 in 10.0 mi Calm Calm - N/A   Clear
2:56 PM 46.0 °F - 8.1 °F 21% 30.10 in 10.0 mi North - - N/A   Clear
3:56 PM 43.0 °F 35.4 °F 12.9 °F 30% 30.09 in 10.0 mi West 16.1 mph - N/A   Clear
4:56 PM 39.0 °F 30.6 °F 16.0 °F 39% 30.11 in 10.0 mi WNW 15.0 mph - N/A   Clear
5:56 PM 36.0 °F 28.5 °F 12.0 °F 37% 30.14 in 10.0 mi NW 10.4 mph - N/A   Clear
6:56 PM 30.0 °F 25.2 °F 10.0 °F 43% 30.18 in 10.0 mi NW 4.6 mph - N/A   Clear
7:56 PM 28.0 °F 18.1 °F 7.0 °F 41% 30.19 in 10.0 mi NNE 11.5 mph - N/A   Clear
8:56 PM 27.0 °F 18.7 °F 3.9 °F 37% 30.20 in 10.0 mi NE 8.1 mph - N/A   Clear
9:56 PM 21.9 °F 13.4 °F 1.9 °F 42% 30.23 in 10.0 mi NNE 6.9 mph - N/A   Clear
10:56 PM 19.9 °F 13.4 °F -0.0 °F 42% 30.25 in 10.0 mi NE 4.6 mph - N/A   Clear
11:56 PM 21.0 °F 14.6 °F 1.9 °F 44% 30.26 in 10.0 mi NE 4.6 mph - N/A   Clear